Time,TemperatureF,DewpointF,PressureIn,WindDirection,WindDirectionDegrees,WindSpeedMPH,WindSpeedGustMPH,Humidity,HourlyPrecipIn,Conditions,Clouds,dailyrainin,SoftwareType,DateUTC
2013-06-23 00:07:00,70.1,67.0,30.03,South,183,2.0,2.0,88,0.00,,,0.00,weatherlink.com 1.10,2013-06-23 04:07:00,
2013-06-23 00:22:00,69.4,66.0,30.02,South,183,0.0,1.0,89,0.00,,,0.00,weatherlink.com 1.10,2013-06-23 04:22:00,
2013-06-23 00:37:00,69.0,66.0,30.02,South,183,0.0,1.0,90,0.00,,,0.00,weatherlink.com 1.10,2013-06-23 04:37:00,
2013-06-23 00:52:00,69.4,66.0,30.02,South,183,0.0,2.0,90,0.00,,,0.00,weatherlink.com 1.10,2013-06-23 04:52:00,
2013-06-23 01:07:00,69.8,67.0,30.02,South,184,0.0,1.0,89,0.00,,,0.00,weatherlink.com 1.10,2013-06-23 05:07:00,
2013-06-23 01:22:00,69.9,67.0,30.02,South,184,0.0,1.0,89,0.00,,,0.00,weatherlink.com 1.10,2013-06-23 05:22:00,
2013-06-23 01:38:00,70.1,67.0,30.01,South,184,1.0,4.0,89,0.00,,,0.00,weatherlink.com 1.10,2013-06-23 05:38:00,
2013-06-23 01:53:00,70.4,67.0,30.01,South,184,1.0,4.0,88,0.00,,,0.00,weatherlink.com 1.10,2013-06-23 05:53:00,
2013-06-23 02:08:00,70.6,67.0,30.01,South,184,1.0,4.0,88,0.00,,,0.00,weatherlink.com 1.10,2013-06-23 06:08:00,
2013-06-23 02:23:00,70.4,67.0,30.01,South,184,0.0,4.0,88,0.00,,,0.00,weatherlink.com 1.10,2013-06-23 06:23:00,
2013-06-23 02:38:00,70.3,67.0,30.01,South,184,0.0,2.0,88,0.00,,,0.00,weatherlink.com 1.10,2013-06-23 06:38:00,
2013-06-23 02:53:00,70.0,66.0,30.02,South,184,0.0,0.0,88,0.00,,,0.00,weatherlink.com 1.10,2013-06-23 06:53:00,
2013-06-23 03:08:00,69.2,66.0,30.01,South,184,0.0,1.0,89,0.00,,,0.00,weatherlink.com 1.10,2013-06-23 07:08:00,
2013-06-23 03:23:00,68.5,66.0,30.02,South,184,0.0,1.0,90,0.00,,,0.00,weatherlink.com 1.10,2013-06-23 07:23:00,
2013-06-23 03:38:00,67.8,65.0,30.02,South,184,0.0,0.0,91,0.00,,,0.00,weatherlink.com 1.10,2013-06-23 07:38:00,
2013-06-23 03:53:00,67.3,65.0,30.02,South,184,0.0,2.0,92,0.00,,,0.00,weatherlink.com 1.10,2013-06-23 07:53:00,
2013-06-23 04:08:00,66.8,65.0,30.03,South,184,2.0,2.0,93,0.00,,,0.00,weatherlink.com 1.10,2013-06-23 08:08:00,
2013-06-23 04:23:00,66.6,65.0,30.03,South,184,0.0,1.0,93,0.00,,,0.00,weatherlink.com 1.10,2013-06-23 08:23:00,
2013-06-23 04:38:00,66.4,65.0,30.03,South,184,0.0,0.0,94,0.00,,,0.00,weatherlink.com 1.10,2013-06-23 08:38:00,
2013-06-23 04:53:00,66.2,65.0,30.04,South,184,0.0,0.0,94,0.00,,,0.00,weatherlink.com 1.10,2013-06-23 08:53:00,
2013-06-23 05:08:00,65.9,64.0,30.04,South,184,0.0,0.0,94,0.00,,,0.00,weatherlink.com 1.10,2013-06-23 09:08:00,
2013-06-23 05:23:00,65.6,64.0,30.05,South,184,0.0,0.0,94,0.00,,,0.00,weatherlink.com 1.10,2013-06-23 09:23:00,
2013-06-23 05:38:00,65.5,64.0,30.05,South,184,0.0,1.0,95,0.00,,,0.00,weatherlink.com 1.10,2013-06-23 09:38:00,
2013-06-23 05:53:00,65.3,64.0,30.06,South,184,0.0,0.0,95,0.00,,,0.00,weatherlink.com 1.10,2013-06-23 09:53:00,
2013-06-23 06:08:00,65.2,64.0,30.06,South,184,0.0,0.0,95,0.00,,,0.00,weatherlink.com 1.10,2013-06-23 10:08:00,
2013-06-23 06:23:00,65.0,64.0,30.07,South,184,0.0,0.0,95,0.00,,,0.00,weatherlink.com 1.10,2013-06-23 10:23:00,
2013-06-23 06:38:00,64.9,64.0,30.07,South,184,0.0,0.0,95,0.00,,,0.00,weatherlink.com 1.10,2013-06-23 10:38:00,
2013-06-23 06:53:00,64.9,64.0,30.07,South,184,0.0,0.0,95,0.00,,,0.00,weatherlink.com 1.10,2013-06-23 10:53:00,
2013-06-23 07:08:00,64.9,64.0,30.07,South,184,0.0,1.0,96,0.00,,,0.00,weatherlink.com 1.10,2013-06-23 11:08:00,
2013-06-23 07:23:00,65.2,64.0,30.07,South,184,0.0,0.0,96,0.00,,,0.00,weatherlink.com 1.10,2013-06-23 11:23:00,
2013-06-23 07:38:00,65.6,65.0,30.07,South,184,0.0,0.0,96,0.00,,,0.00,weatherlink.com 1.10,2013-06-23 11:38:00,
2013-06-23 07:53:00,66.4,66.0,30.07,South,184,0.0,0.0,97,0.00,,,0.00,weatherlink.com 1.10,2013-06-23 11:53:00,
2013-06-23 08:08:00,67.4,67.0,30.08,South,184,0.0,0.0,97,0.00,,,0.00,weatherlink.com 1.10,2013-06-23 12:08:00,
2013-06-23 08:23:00,68.6,68.0,30.08,South,184,0.0,0.0,96,0.00,,,0.00,weatherlink.com 1.10,2013-06-23 12:23:00,
2013-06-23 08:38:00,70.6,68.0,30.08,South,184,0.0,3.0,92,0.00,,,0.00,weatherlink.com 1.10,2013-06-23 12:38:00,
2013-06-23 08:53:00,72.6,69.0,30.08,South,182,3.0,4.0,87,0.00,,,0.00,weatherlink.com 1.10,2013-06-23 12:53:00,
2013-06-23 09:08:00,74.3,70.0,30.08,SSW,212,2.0,5.0,85,0.00,,,0.00,weatherlink.com 1.10,2013-06-23 13:08:00,
2013-06-23 09:23:00,75.6,70.0,30.08,WSW,238,2.0,6.0,82,0.00,,,0.00,weatherlink.com 1.10,2013-06-23 13:23:00,
2013-06-23 09:38:00,76.3,70.0,30.09,South,173,3.0,4.0,82,0.00,,,0.00,weatherlink.com 1.10,2013-06-23 13:38:00,
2013-06-23 09:53:00,77.0,70.0,30.08,South,186,1.0,4.0,80,0.00,,,0.00,weatherlink.com 1.10,2013-06-23 13:53:00,
2013-06-23 10:09:00,77.9,71.0,30.08,South,188,2.0,5.0,80,0.00,,,0.00,weatherlink.com 1.10,2013-06-23 14:09:00,
2013-06-23 10:24:00,78.8,71.0,30.07,South,182,0.0,6.0,77,0.00,,,0.00,weatherlink.com 1.10,2013-06-23 14:24:00,
2013-06-23 10:39:00,79.7,71.0,30.07,SE,140,2.0,7.0,74,0.00,,,0.00,weatherlink.com 1.10,2013-06-23 14:39:00,
2013-06-23 10:54:00,80.5,71.0,30.07,South,181,2.0,7.0,73,0.00,,,0.00,weatherlink.com 1.10,2013-06-23 14:54:00,
2013-06-23 11:09:00,81.1,71.0,30.06,SSW,207,2.0,8.0,72,0.00,,,0.00,weatherlink.com 1.10,2013-06-23 15:09:00,
2013-06-23 11:24:00,81.6,71.0,30.07,South,188,3.0,10.0,70,0.00,,,0.00,weatherlink.com 1.10,2013-06-23 15:24:00,
2013-06-23 11:39:00,82.3,71.0,30.07,SSE,167,3.0,10.0,68,0.00,,,0.00,weatherlink.com 1.10,2013-06-23 15:39:00,
2013-06-23 11:54:00,82.8,71.0,30.06,SE,131,1.0,12.0,67,0.00,,,0.00,weatherlink.com 1.10,2013-06-23 15:54:00,
2013-06-23 12:09:00,82.8,72.0,30.07,South,184,0.0,9.0,70,0.00,,,0.00,weatherlink.com 1.10,2013-06-23 16:09:00,
2013-06-23 12:24:00,83.8,72.0,30.07,SW,217,1.0,9.0,68,0.00,,,0.00,weatherlink.com 1.10,2013-06-23 16:24:00,
2013-06-23 12:39:00,84.1,71.0,30.06,South,175,3.0,11.0,65,0.00,,,0.00,weatherlink.com 1.10,2013-06-23 16:39:00,
2013-06-23 12:54:00,84.1,70.0,30.06,SSE,157,4.0,11.0,63,0.00,,,0.00,weatherlink.com 1.10,2013-06-23 16:54:00,
2013-06-23 13:09:00,83.8,71.0,30.06,South,170,6.0,11.0,66,0.00,,,0.00,weatherlink.com 1.10,2013-06-23 17:09:00,
2013-06-23 13:24:00,85.4,72.0,30.06,SW,235,3.0,8.0,65,0.00,,,0.00,weatherlink.com 1.10,2013-06-23 17:24:00,
2013-06-23 13:39:00,85.9,72.0,30.05,South,186,1.0,10.0,64,0.00,,,0.00,weatherlink.com 1.10,2013-06-23 17:39:00,
2013-06-23 13:54:00,85.6,70.0,30.06,South,190,2.0,9.0,60,0.00,,,0.00,weatherlink.com 1.10,2013-06-23 17:54:00,
2013-06-23 14:09:00,84.1,71.0,30.05,South,181,6.0,8.0,64,0.00,,,0.00,weatherlink.com 1.10,2013-06-23 18:09:00,
2013-06-23 14:24:00,83.1,69.0,30.06,WSW,237,6.0,12.0,62,0.00,,,0.00,weatherlink.com 1.10,2013-06-23 18:24:00,
2013-06-23 14:39:00,82.3,68.0,30.06,SW,221,3.0,7.0,62,0.00,,,0.00,weatherlink.com 1.10,2013-06-23 18:39:00,
2013-06-23 14:54:00,81.7,69.0,30.07,North,350,2.0,6.0,66,0.00,,,0.00,weatherlink.com 1.10,2013-06-23 18:54:00,
2013-06-23 15:09:00,78.9,67.0,30.09,North,355,3.0,11.0,68,0.00,,,0.00,weatherlink.com 1.10,2013-06-23 19:09:00,
2013-06-23 15:24:00,75.4,67.0,30.09,SW,228,6.0,12.0,75,0.00,,,0.00,weatherlink.com 1.10,2013-06-23 19:24:00,
2013-06-23 15:39:00,73.5,65.0,30.09,SW,236,5.0,12.0,75,0.00,,,0.00,weatherlink.com 1.10,2013-06-23 19:39:00,
2013-06-23 15:54:00,71.2,66.0,30.07,SW,234,4.0,14.0,83,0.19,,,0.19,weatherlink.com 1.10,2013-06-23 19:54:00,
2013-06-23 16:09:00,69.8,67.0,30.05,SSE,161,0.0,5.0,91,0.25,,,0.25,weatherlink.com 1.10,2013-06-23 20:09:00,
2013-06-23 16:24:00,71.4,70.0,30.04,SSW,213,1.0,3.0,95,0.25,,,0.25,weatherlink.com 1.10,2013-06-23 20:24:00,
2013-06-23 16:39:00,74.1,71.0,30.05,WSW,252,1.0,2.0,91,0.25,,,0.25,weatherlink.com 1.10,2013-06-23 20:39:00,
2013-06-23 16:54:00,76.4,73.0,30.04,WSW,249,0.0,4.0,88,0.06,,,0.25,weatherlink.com 1.10,2013-06-23 20:54:00,
2013-06-23 17:09:00,78.2,72.0,30.04,WSW,247,1.0,3.0,82,0.00,,,0.25,weatherlink.com 1.10,2013-06-23 21:09:00,
2013-06-23 17:24:00,80.0,73.0,30.03,SW,236,0.0,3.0,78,0.00,,,0.25,weatherlink.com 1.10,2013-06-23 21:24:00,
2013-06-23 17:39:00,81.1,73.0,30.03,WSW,257,1.0,2.0,77,0.00,,,0.25,weatherlink.com 1.10,2013-06-23 21:39:00,
2013-06-23 17:54:00,81.6,73.0,30.03,NNW,338,0.0,3.0,75,0.00,,,0.25,weatherlink.com 1.10,2013-06-23 21:54:00,
2013-06-23 18:09:00,81.7,73.0,30.02,WNW,298,2.0,3.0,74,0.00,,,0.25,weatherlink.com 1.10,2013-06-23 22:09:00,
2013-06-23 18:24:00,82.1,71.0,30.03,South,169,3.0,4.0,70,0.00,,,0.25,weatherlink.com 1.10,2013-06-23 22:24:00,
2013-06-23 18:39:00,82.6,73.0,30.02,South,175,2.0,4.0,73,0.00,,,0.25,weatherlink.com 1.10,2013-06-23 22:39:00,
2013-06-23 18:54:00,82.4,73.0,30.01,SSW,194,1.0,5.0,72,0.00,,,0.25,weatherlink.com 1.10,2013-06-23 22:54:00,
2013-06-23 19:09:00,82.3,72.0,30.02,South,178,1.0,4.0,72,0.00,,,0.25,weatherlink.com 1.10,2013-06-23 23:09:00,
2013-06-23 19:24:00,81.8,72.0,30.02,SW,224,1.0,4.0,72,0.00,,,0.25,weatherlink.com 1.10,2013-06-23 23:24:00,
2013-06-23 19:39:00,81.0,72.0,30.02,SW,224,0.0,3.0,74,0.00,,,0.25,weatherlink.com 1.10,2013-06-23 23:39:00,
2013-06-23 19:54:00,80.5,72.0,30.02,SW,225,0.0,0.0,75,0.00,,,0.25,weatherlink.com 1.10,2013-06-23 23:54:00,
2013-06-23 20:09:00,80.0,73.0,30.02,SW,225,0.0,2.0,80,0.00,,,0.25,weatherlink.com 1.10,2013-06-24 00:09:00,
2013-06-23 20:24:00,78.8,73.0,30.02,SW,225,0.0,2.0,82,0.00,,,0.25,weatherlink.com 1.10,2013-06-24 00:24:00,
2013-06-23 20:39:00,77.6,73.0,30.01,SW,225,1.0,2.0,85,0.00,,,0.25,weatherlink.com 1.10,2013-06-24 00:39:00,
2013-06-23 20:54:00,76.4,72.0,30.02,SW,225,0.0,1.0,87,0.00,,,0.25,weatherlink.com 1.10,2013-06-24 00:54:00,
2013-06-23 21:09:00,75.3,72.0,30.02,SW,225,0.0,1.0,88,0.00,,,0.25,weatherlink.com 1.10,2013-06-24 01:09:00,
2013-06-23 21:24:00,74.5,72.0,30.02,SW,225,0.0,0.0,90,0.00,,,0.25,weatherlink.com 1.10,2013-06-24 01:24:00,
2013-06-23 21:39:00,73.8,71.0,30.03,SW,225,0.0,1.0,91,0.00,,,0.25,weatherlink.com 1.10,2013-06-24 01:39:00,
2013-06-23 21:54:00,73.1,71.0,30.03,SW,225,0.0,2.0,92,0.00,,,0.25,weatherlink.com 1.10,2013-06-24 01:54:00,
2013-06-23 22:09:00,72.6,70.0,30.03,SW,225,0.0,1.0,92,0.00,,,0.25,weatherlink.com 1.10,2013-06-24 02:09:00,
2013-06-23 22:24:00,72.5,70.0,30.04,SW,225,0.0,0.0,93,0.00,,,0.25,weatherlink.com 1.10,2013-06-24 02:24:00,
2013-06-23 22:39:00,72.2,70.0,30.04,SW,225,0.0,0.0,93,0.00,,,0.25,weatherlink.com 1.10,2013-06-24 02:39:00,
2013-06-23 22:54:00,72.0,70.0,30.05,SW,225,0.0,0.0,93,0.00,,,0.25,weatherlink.com 1.10,2013-06-24 02:54:00,
2013-06-23 23:09:00,71.7,70.0,30.05,SW,225,0.0,0.0,93,0.00,,,0.25,weatherlink.com 1.10,2013-06-24 03:09:00,
2013-06-23 23:24:00,71.4,70.0,30.05,SW,225,0.0,1.0,94,0.00,,,0.25,weatherlink.com 1.10,2013-06-24 03:24:00,
2013-06-23 23:39:00,71.3,70.0,30.05,SW,225,0.0,0.0,94,0.00,,,0.25,weatherlink.com 1.10,2013-06-24 03:39:00,
2013-06-23 23:54:00,71.2,70.0,30.05,SW,225,0.0,0.0,95,0.00,,,0.25,weatherlink.com 1.10,2013-06-24 03:54:00,